User: anonymous   Login
Location: Unspecified
(0.0000°N, 0.0000°E)
Time: 08:19:41
(UTC+00:00)
Language:

VZLUSAT 1 - Orbit

View from above orbital plane
View from above orbital plane
View from above satellite
View from above satellite

Ground track
Ground track

The orbit data is extracted from the following two-line orbital elements,

1 42790U 17036AB  18267.86257863 +.00001939 +00000-0 +86352-4 0  9998
2 42790 097.3919 326.2748 0013058 087.9351 272.3381 15.22569207069688
Epoch (UTC): 24 September 2018 20:42:06
Eccentricity: 0.0013058
inclination: 97.3919°
perigee height: 489 km
apogee height: 507 km
right ascension of ascending node: 326.2748°
argument of perigee: 87.9351°
revolutions per day: 15.22569207
mean anomaly at epoch: 272.3381°
orbit number at epoch: 6968

The dashed part of the orbit path shows where the satellite is in the earth's shadow,  

DLR